LRBV Weather Reports


Display with metric or nautical units.
time (UTC)temp
F
wind
direction
speed
MPH
gust
MPH
rain 1hr
in
rain 24hr
in
rain mn
in
humidity
%
barometer
mb
20260506103351 75 20 5.0 0.0 0.00 0.00 0.00 29 1014.0
20260506101851 73 3.0 0.0 0.00 0.00 0.00 33 1014.0
20260506100350 73 3.0 0.0 0.00 0.00 0.00 33 1014.0
20260506094851 72 0 0.0 0.0 0.00 0.00 0.00 36 1015.0
20260506093350 72 0 0.0 0.0 0.00 0.00 0.00 36 1015.0
20260506091850 70 3.0 0.0 0.00 0.00 0.00 40 1015.0
20260506090350 70 3.0 0.0 0.00 0.00 0.00 40 1015.0
20260506084851 68 2.0 0.0 0.00 0.00 0.00 49 1015.0
20260506083350 68 2.0 0.0 0.00 0.00 0.00 49 1015.0
20260506081847 66 2.0 0.0 0.00 0.00 0.00 46 1015.0
20260506080350 66 2.0 0.0 0.00 0.00 0.00 46 1015.0
20260506073351 63 90 2.0 0.0 0.00 0.00 0.00 56 1015.0
20260506071850 61 2.0 0.0 0.00 0.00 0.00 59 1015.0
20260506070350 61 2.0 0.0 0.00 0.00 0.00 59 1015.0
20260506061851 57 100 3.0 0.0 0.00 0.00 0.00 67 1015.0
20260506060352 57 100 3.0 0.0 0.00 0.00 0.00 67 1015.0
20260506050404 52 0 0.0 0.0 0.00 0.00 0.00 77 1015.0
20260506044906 48 0 0.0 0.0 0.00 0.00 0.00 82 1015.0
20260506043354 48 0 0.0 0.0 0.00 0.00 0.00 82 1015.0
20260506041851 45 250 2.0 0.0 0.00 0.00 0.00 87 1015.0
20260506040350 45 250 2.0 0.0 0.00 0.00 0.00 87 1015.0
20260506034851 43 0 0.0 0.0 0.00 0.00 0.00 93 1015.0
20260506033350 43 0 0.0 0.0 0.00 0.00 0.00 93 1015.0
20260506031850 45 2.0 0.0 0.00 0.00 0.00 87 1015.0
20260506030350 45 2.0 0.0 0.00 0.00 0.00 87 1015.0
20260506024850 43 190 6.0 0.0 0.00 0.00 0.00 87 1015.0
20260506023350 43 190 6.0 0.0 0.00 0.00 0.00 87 1015.0
20260506021847 43 210 6.0 0.0 0.00 0.00 0.00 93 1014.0
20260506020350 43 210 6.0 0.0 0.00 0.00 0.00 93 1014.0
20260506014850 43 210 6.0 0.0 0.00 0.00 0.00 87 1014.0
20260506013350 43 210 6.0 0.0 0.00 0.00 0.00 87 1014.0
20260506011851 45 2.0 0.0 0.00 0.00 0.00 87 1015.0
20260506010350 45 2.0 0.0 0.00 0.00 0.00 87 1015.0
20260506004847 46 2.0 0.0 0.00 0.00 0.00 82 1014.0
20260506003513 46 2.0 0.0 0.00 0.00 0.00 82 1014.0
20260506001851 48 0 0.0 0.0 0.00 0.00 0.00 82 1014.0
20260506000351 48 0 0.0 0.0 0.00 0.00 0.00 82 1014.0
20260505234850 52 2.0 0.0 0.00 0.00 0.00 72 1014.0
20260505233350 52 2.0 0.0 0.00 0.00 0.00 72 1014.0
20260505231850 54 90 5.0 0.0 0.00 0.00 0.00 67 1014.0
20260505230351 54 90 5.0 0.0 0.00 0.00 0.00 67 1014.0
20260505224851 55 110 1.0 0.0 0.00 0.00 0.00 63 1014.0
20260505223350 55 110 1.0 0.0 0.00 0.00 0.00 63 1014.0
20260505221848 57 130 5.0 0.0 0.00 0.00 0.00 59 1014.0
20260505220351 57 130 5.0 0.0 0.00 0.00 0.00 59 1014.0
20260505214851 55 140 3.0 0.0 0.00 0.00 0.00 63 1014.0
20260505213351 55 140 3.0 0.0 0.00 0.00 0.00 63 1014.0
20260505211850 57 210 10.0 0.0 0.00 0.00 0.00 63 1014.0
20260505210351 57 210 10.0 0.0 0.00 0.00 0.00 63 1014.0
20260505204852 57 220 15.0 0.0 0.00 0.00 0.00 63 1014.0
20260505203350 57 220 15.0 0.0 0.00 0.00 0.00 63 1014.0
20260505201921 59 230 13.0 0.0 0.00 0.00 0.00 59 1014.0
20260505200351 59 230 13.0 0.0 0.00 0.00 0.00 59 1014.0
20260505194850 63 220 15.0 0.0 0.00 0.00 0.00 52 1014.0
20260505193350 63 220 15.0 0.0 0.00 0.00 0.00 52 1014.0
20260505191850 63 220 15.0 0.0 0.00 0.00 0.00 52 1014.0
20260505190350 63 220 15.0 0.0 0.00 0.00 0.00 52 1014.0
20260505184851 63 220 15.0 0.0 0.00 0.00 0.00 52 1014.0
20260505183351 63 220 15.0 0.0 0.00 0.00 0.00 52 1014.0
20260505180351 61 150 6.0 0.0 0.00 0.00 0.00 55 1013.0
20260505174845 70 20 6.0 0.0 0.00 0.00 0.00 33 1013.0
20260505173350 70 20 6.0 0.0 0.00 0.00 0.00 33 1013.0
20260505171850 72 330 2.0 0.0 0.00 0.00 0.00 33 1013.0
20260505170351 72 330 2.0 0.0 0.00 0.00 0.00 33 1013.0
20260505164850 73 310 3.0 0.0 0.00 0.00 0.00 33 1013.0
20260505163351 73 310 3.0 0.0 0.00 0.00 0.00 33 1013.0
20260505161851 75 2.0 0.0 0.00 0.00 0.00 36 1013.0
20260505160351 75 2.0 0.0 0.00 0.00 0.00 36 1013.0
20260505153351 73 190 5.0 0.0 0.00 0.00 0.00 27 1013.0
20260505151859 75 3.0 0.0 0.00 0.00 0.00 25 1013.0
20260505150351 75 3.0 0.0 0.00 0.00 0.00 25 1013.0
20260505140350 75 120 1.0 0.0 0.00 0.00 0.00 22 1014.0
20260505124851 75 70 7.0 0.0 0.00 0.00 0.00 25 1015.0
20260505123350 75 70 7.0 0.0 0.00 0.00 0.00 25 1015.0
20260505121850 75 3.0 0.0 0.00 0.00 0.00 27 1015.0
20260505120402 75 5.0 0.0 0.00 0.00 0.00 25 1015.0
20260505114858 75 5.0 0.0 0.00 0.00 0.00 25 1015.0
20260505113421 75 5.0 0.0 0.00 0.00 0.00 25 1015.0
20260505111851 73 110 6.0 0.0 0.00 0.00 0.00 31 1015.0
20260505110351 73 110 6.0 0.0 0.00 0.00 0.00 31 1015.0